Location: Kikino
(54.4440°N, 112.0940°W)
Time: 22:36:05
(UTC+00:00)

BlueWalker 3 - Visible Passes

Search period start: 24 June 2024 00:00
Search period end: 04 July 2024 00:00
Orbit: 480 x 493 km, 53.2° (Epoch: 23 June)

Date Brightness Start Highest point End Pass type
(mag) Time Alt. Az. Time Alt. Az. Time Alt. Az.
24 Jun 1.8 05:10:59 10° WSW 05:14:42 68° S 05:18:26 10° E visible
24 Jun 1.8 06:49:02 10° W 06:52:46 67° S 06:56:29 10° ESE visible
24 Jun 2.7 08:27:18 10° W 08:30:34 29° SSW 08:33:50 10° SSE visible
25 Jun 1.8 06:23:19 10° W 06:27:03 68° S 06:30:46 10° ESE visible
25 Jun 2.7 08:01:34 10° W 08:04:52 30° SSW 08:07:29 14° SSE visible
26 Jun 1.8 05:57:34 10° W 06:01:19 69° S 06:05:02 10° ESE visible
26 Jun 2.6 07:35:49 10° W 07:39:09 31° SSW 07:41:17 18° SSE visible
27 Jun 1.8 05:31:51 10° W 05:35:34 70° S 05:39:18 10° ESE visible
27 Jun 2.6 07:10:03 10° W 07:13:26 32° SSW 07:15:29 19° SSE visible
28 Jun 1.8 05:06:05 10° W 05:09:50 71° S 05:13:34 10° ESE visible
28 Jun 2.6 06:44:17 10° W 06:47:42 34° SSW 06:49:54 18° SSE visible
29 Jun 2.6 06:18:31 10° W 06:21:57 35° SSW 06:24:28 16° SSE visible
30 Jun 2.6 05:52:44 10° W 05:56:13 36° SSW 05:59:06 14° SE visible
30 Jun 4.1 07:32:40 10° WSW 07:33:25 11° SW 07:33:25 11° SW visible
01 Jul 2.5 05:26:57 10° W 05:30:27 38° SSW 05:33:48 11° SE visible
01 Jul 4.0 07:06:35 10° WSW 07:07:48 11° SW 07:08:08 11° SW visible
02 Jul 2.5 05:01:09 10° W 05:04:41 39° SSW 05:08:12 10° SE visible
02 Jul 4.0 06:40:35 10° WSW 06:42:04 12° SW 06:42:54 11° SSW visible
03 Jul 4.0 06:14:37 10° WSW 06:16:19 13° SW 06:17:43 11° SSW visible
